Regional Weather Roundup
Issued by NWS

Home | Current Version | Previous Version | Text Only | Print | Product List | Glossary Off
Versions: 1 2 3 4 5 6 7 8 9 10 11 12 13 14 15 16 17 18 19 20 21 22 23 24 25 26 27 28 29 30 31 32 33 34 35 36 37 38 39 40 41 42 43 44 45 46 47 48 49 50

358
ASUS45 KSLC 201210
RWRUT

UTAH REGIONAL WEATHER ROUNDUP
NATIONAL WEATHER SERVICE SALT LAKE CITY UT
600 AM MDT WED SEP 20 2017

UTZ001>011-023>025-201300-

NORTHERN UTAH

CITY           SKY/WX    TMP DP  RH WIND       PRES   REMARKS
BRIGHAM CITY   MOCLDY    40  36  84 CALM      29.93S
HILL AFB       CLEAR     43  32  65 E16       29.92F
LOGAN          MOCLDY    38  36  92 CALM      29.93F
OGDEN          CLEAR     44  34  67 S12       29.92S
SALT LAKE CITY PTCLDY    48  38  68 S8        29.93S
TOOELE VALLEY  CLEAR     43  34  70 S12       29.93S
WENDOVER       CLEAR     40  28  62 CALM      29.92S
HEBER CITY     CLEAR     32  32 100 CALM      29.99S
WEST JORDAN    CLEAR     44  37  76 SW8       29.94S

$$

UTZ011>015-024>027-201300-

CENTRAL/NORTHEAST UTAH

CITY           SKY/WX    TMP DP  RH WIND       PRES   REMARKS
PROVO AIRPORT  CLEAR     43  35  73 SE3       29.96F
MOAB/CANYONLAN CLEAR     52  35  52 CALM      29.90R
DELTA          CLEAR     41  36  81 E3        29.94S
PRICE          PTCLDY    47  32  56 CALM      29.96R
ROOSEVELT      CLOUDY    46  39  76 W5        30.01S
VERNAL         CLOUDY    50  36  58 NE7       29.99R

$$

UTZ013>016-019>022-027-201300-

SOUTHERN UTAH

CITY           SKY/WX    TMP DP  RH WIND       PRES   REMARKS
BRYCE CANYON   CLEAR     40  32  73 NW3       30.07R
CEDAR CITY     CLEAR     43  37  79 NE3       29.95S
MILFORD        CLEAR     44  34  67 NW6       29.94S
ST GEORGE      SUNNY     65  38  36 SE5       29.84R
HANKSVILLE     CLEAR     55  34  44 CALM      29.92R
BLANDING         N/A     49  29  46 CALM      30.08R

$$

REGIONAL REPORTS     COLORADO/ARIZONA

CITY           SKY/WX    TMP DP  RH WIND       PRES   REMARKS
CRAIG, CO      CLOUDY    40  35  83 NE10      30.04S WCI  33
GRAND JUNCTION CLEAR     48  36  63 CALM      29.93R
RIFLE, CO      CLEAR     45  35  68 SE3       29.99R
MONTROSE, CO   CLEAR     53  33  46 VRB5      30.00R
CORTEZ, CO     CLEAR     45  30  55 NE9       30.04R
PAGE, AZ       CLEAR     62  34  35 SE8       29.90S
GRAND CANYON   PTCLDY    38  30  73 NE5       30.09S WCI  34
KINGMAN, AZ    CLEAR     58  39  49 SE6       29.88S
FLAGSTAFF, AZ  CLEAR     38  28  67 CALM      30.12F

$$

REGIONAL REPORTS    NEVADA/IDAHO/WYOMING

CITY           SKY/WX    TMP DP  RH WIND       PRES   REMARKS
LAS VEGAS, NV  CLEAR     73  40  30 S9        29.77R
ELY, NY        PTCLDY    37  23  56 S13       29.99S WCI  29
ELKO, NV       CLEAR     37  21  52 NE3       29.92F
POCATELLO, ID  CLOUDY    44  33  65 E3        29.89F
BURLEY, ID     CLOUDY    43  32  65 S8        29.86F
FORT BRIDGER,    N/A     34  28  78 SW9       30.02S WCI  26
EVANSTON, WY   CLEAR     33  29  85 S8        29.99F WCI  26
ROCK SPRINGS,  CLOUDY    34  28  79 S7        30.00S WCI  28
KEMMERER, WY     N/A     32  28  86 CALM      29.98F

$$




USA.gov is the U.S. government's official web portal to all federal, state and local government web resources and services.